Simultaneous Nadir Overpasses (SNOs) Predictions

Prediction of SNOs between AQUA and METOP-B Satellite Orbit:

Table of predicted SNOs for the next 14.0 days since TLE Epoch: 8/5/2016
Index Date (AQUA) Time (AQUA) Lat,Lon (AQUA) SZA (AQUA ) Date (METOP-B) Time (METOP-B) Lat,Lon (METOP-B) SZA (METOP-B ) Distance(km) Time Diff (sec)
1 08/07/2016 20:45:40 -73.77, 42.89 122.29 08/07/2016 20:45:15 -73.76, 43.00 122.30 3.36 25
2 08/07/2016 21:35:08 73.81,-149.57 57.77 08/07/2016 21:35:54 73.79,-149.61 57.74 3.35 46
3 08/10/2016 15:30:18 73.20, -57.12 57.91 08/10/2016 15:29:10 73.14, -59.34 57.95 71.92 68
4 08/10/2016 16:19:54 -73.73, 109.42 121.53 08/10/2016 16:19:40 -73.75, 109.38 121.49 3.36 14
5 08/10/2016 17:09:23 73.83, -83.16 58.60 08/10/2016 17:10:18 73.82, -83.12 58.58 1.42 55
6 08/13/2016 11:04:39 73.54, 8.62 59.11 08/13/2016 11:03:27 73.53, 7.93 59.14 21.82 72
7 08/13/2016 11:54:09 -73.74, 175.82 120.67 08/13/2016 11:54:05 -73.74, 175.76 120.66 1.86 4
8 08/13/2016 12:43:36 73.80, -16.66 59.41 08/13/2016 12:44:42 73.81, -16.75 59.41 3.09 66
9 08/16/2016 06:38:56 73.72, 74.66 60.18 08/16/2016 06:37:47 73.71, 74.76 60.17 3.74 69
10 08/16/2016 07:28:23 -73.77,-117.80 119.76 08/16/2016 07:28:28 -73.78,-117.75 119.75 1.98 5
11 08/16/2016 08:17:52 73.88, 49.60 60.37 08/16/2016 08:19:05 73.89, 49.85 60.36 7.83 73
12 08/19/2016 02:13:10 73.71, 141.13 61.07 08/19/2016 02:12:12 73.69, 141.12 61.06 2.46 58
13 08/19/2016 03:02:37 -73.75, -51.32 118.88 08/19/2016 03:02:53 -73.76, -51.38 118.87 2.37 16




NCC Satellite Simultaneous Nadir Overpasses (SNOs) Prediction Service
